Terminal Aerodrome Forecast
Issued by NWS Chicago, IL

Home | Current Version | Previous Version | Text Only | Print | Product List | Glossary Off
Versions: 1 2 3 4 5 6 7 8 9 10 11 12 13 14 15 16 17 18 19 20 21 22 23 24 25 26 27 28 29 30

000
FTUS43 KLOT 192200 AAB
TAFRFD
TAF AMD
KRFD 192208Z 1922/2018 16010KT P6SM BKN300
     FM201500 20012G16KT P6SM BKN120=

USA.gov is the U.S. government's official web portal to all federal, state and local government web resources and services.